Regional Weather Roundup
Issued by NWS

Home | Current Version | Previous Version | Graphics & Text | Print | Product List | Glossary On
Versions: 1 2 3 4 5 6 7 8 9 10 11 12 13 14 15 16 17 18 19 20 21 22 23 24 25 26 27 28 29 30 31 32 33 34 35 36 37 38 39 40 41 42 43 44 45 46 47 48 49 50
000
ASUS43 KTOP 020159
RWRKS

WEATHER ROUNDUP FOR KANSAS
NATIONAL WEATHER SERVICE GOODLAND KS
900 PM CDT MON JUN 01 2015

NOTE:  "FAIR" INDICATES FEW OR NO CLOUDS BELOW 12,000 FEET WITH NO
SIGNIFICANT WEATHER AND/OR OBSTRUCTIONS TO VISIBILITY.

KSZ001>006-013>018-027>032-041>047-020300-
NORTHWEST KANSAS

CITY           SKY/WX    TMP DP  RH WIND       PRES   REMARKS
GOODLAND       CLOUDY    74  63  68 SE13      29.98R
HAYS           CLEAR     72  59  64 SE13      30.01S
HILL CITY      CLEAR     73  62  68 SE10      29.99S
RUSSELL        CLOUDY    71  61  70 SE14      30.01R
$$

KSZ061>065-074>080-084>089-020300-
SOUTHWEST KANSAS

CITY           SKY/WX    TMP DP  RH WIND       PRES   REMARKS
DODGE CITY     CLEAR     73  62  68 SE14      30.00F
ELKHART          N/A     75  60  59 SE13        N/A
GARDEN CITY    CLEAR     74  63  68 SE15      29.97F
GREAT BEND     CLEAR     70  61  73 SE10      30.01S
LIBERAL        CLEAR     75  63  64 SE13      29.98F
$$

KSZ066>073-081>083-090>101-020300-
SOUTHEAST KANSAS

CITY           SKY/WX    TMP DP  RH WIND       PRES   REMARKS
CHANUTE        CLEAR     63  57  81 E6        30.07S
COFFEYVILLE    PTCLDY    66  60  81 E6        30.05S
HUTCHINSON     CLOUDY    72  58  61 SE8       30.03S
MEDICINE LODGE   N/A     74  62  66 SE6       30.01R
NEWTON         CLEAR     66  55  68 SE8       30.07S
PARSONS        PTCLDY    65  60  84 CALM      30.07S
WICHITA INTL   PTCLDY    71  57  61 SE9       30.04R
WICHITA JABRA  CLEAR     69  58  67 SE7       30.05R
WINFIELD       CLEAR     70  59  68 E8        30.05S
$$

KSZ007>012-019>026-033>040-048>060-102>105-020300-
NORTHEAST KANSAS

CITY           SKY/WX    TMP DP  RH WIND       PRES   REMARKS
CONCORDIA      PTCLDY    66  57  72 SE8       30.05R
EMPORIA        MOCLDY    62  56  80 E8        30.08R
LAWRENCE       CLOUDY    62  54  74 S10       30.11S
MANHATTAN      PTCLDY    68  57  68 SE6       30.06R
OLATHE IND     CLOUDY    60  54  80 SE10      30.12S
OLATHE EXE     CLOUDY    60  53  77 SE7       30.10F
SALINA         CLOUDY    72  58  61 SE13      30.04S
TOPEKA BILLARD CLEAR     61  54  77 SE9       30.10S
TOPEKA FORBES  CLEAR     62  53  72 E8        30.09S
$$


USA.gov is the U.S. government's official web portal to all federal, state and local government web resources and services.